Sparta, IL

8:53 PM CDT on May 25, 2017 (GMT -0500)
Sparta Community-Hunter

Weather History for KSAR - November, 2012

Change the Weather History Date:

Wednesday, November 21, 2012

  Actual Average (KBLV) Record (KBLV)
Temperature  
Mean Temperature 50 °F -  
Max Temperature 60 °F 53 °F 73 °F (1990)
Min Temperature 41 °F 33 °F 14 °F (1964)
Degree Days  
Heating Degree Days 14    
Moisture  
Dew Point 48 °F    
Average Humidity 95    
Maximum Humidity 100    
Minimum Humidity 63    
Precipitation  
Precipitation 0.00 in - - ()
Sea Level Pressure  
Sea Level Pressure 30.22 in    
Wind  
Wind Speed 2 mph (South)    
Max Wind Speed 7 mph    
Max Gust Speed -    
Visibility 5 miles    
Events Fog    
Averages and records for this station are not official NWS values.
T = Trace of Precipitation, MM = Missing Value Source: NWS Daily Summary

Daily Weather History Graph

Daily Weather History Graph

Search for Another Location

Airport or City:

Trip Planner

Search our weather history database for the weather conditions in past years. The results will help you decide how hot, cold, wet, or windy it might be!

Date:

Astronomy

Nov. 21, 2012 Rise Set
Actual Time 6:46 AM CST 4:42 PM CST
Civil Twilight 6:18 AM CST 5:11 PM CST
Nautical Twilight 5:45 AM CST 5:43 PM CST
Astronomical Twilight 5:14 AM CST 6:14 PM CST
Moon 12:54 PM CST (11/21) 12:11 AM CST (11/21)
Length of Visible Light 10h 52m
Length of Day
9h 55m
First Quarter, 62% of the Moon is Illuminated
Nov 21
First Quarter
Nov 28
Full
Dec 6
Last Quarter
Dec 13
New
Dec 19
First Quarter

Hourly Weather History & Observations

Time (CST) Temp. Windchill Dew Point Humidity Pressure Visibility Wind Dir Wind Speed Gust Speed Precip Events Conditions
12:15 AM 48.2 °F - 48.2 °F 100% 30.19 in 5.0 mi Calm Calm - N/A   Clear
12:35 AM 46.4 °F 45.2 °F 46.4 °F 100% 30.19 in 4.0 mi West 3.5 mph - N/A   Clear
12:55 AM 48.2 °F - 48.2 °F 100% 30.20 in 4.0 mi WNW 4.6 mph - N/A   Clear
1:15 AM 46.4 °F 44.3 °F 46.4 °F 100% 30.20 in 4.0 mi WNW 4.6 mph - N/A   Clear
1:35 AM 46.4 °F 43.5 °F 46.4 °F 100% 30.20 in 3.0 mi WNW 5.8 mph - N/A   Clear
1:55 AM 46.4 °F 45.2 °F 46.4 °F 100% 30.21 in 2.5 mi WNW 3.5 mph - N/A   Clear
2:15 AM 46.4 °F - 46.4 °F 100% 30.21 in 2.0 mi Calm Calm - N/A   Clear
2:35 AM 46.4 °F - 46.4 °F 100% 30.21 in 1.8 mi Calm Calm - N/A   Clear
2:55 AM 46.4 °F - 46.4 °F 100% 30.21 in 1.5 mi Calm Calm - N/A   Clear
3:15 AM 46.4 °F 44.3 °F 46.4 °F 100% 30.21 in 1.2 mi NW 4.6 mph - N/A   Clear
3:35 AM 44.6 °F 43.1 °F 44.6 °F 100% 30.22 in 0.2 mi WNW 3.5 mph - N/A Fog Fog
3:55 AM 44.6 °F 43.1 °F 44.6 °F 100% 30.22 in 0.2 mi West 3.5 mph - N/A Fog Fog
4:15 AM 44.6 °F 43.1 °F 44.6 °F 100% 30.23 in 0.2 mi West 3.5 mph - N/A Fog Fog
4:35 AM 42.8 °F - 42.8 °F 100% 30.23 in 0.2 mi Calm Calm - N/A Fog Fog
4:55 AM 42.8 °F 41.1 °F 42.8 °F 100% 30.24 in 0.2 mi West 3.5 mph - N/A Fog Fog
5:15 AM 42.8 °F - 42.8 °F 100% 30.24 in 0.2 mi Calm Calm - N/A Fog Fog
5:35 AM 42.8 °F - 42.8 °F 100% 30.24 in 0.2 mi Calm Calm - N/A Fog Fog
5:55 AM 42.8 °F - 42.8 °F 100% 30.25 in 0.2 mi Calm Calm - N/A Fog Fog
6:15 AM 42.8 °F - 42.8 °F 100% 30.24 in 0.2 mi Calm Calm - N/A Fog Fog
6:35 AM 42.8 °F - 42.8 °F 100% 30.25 in 0.2 mi Calm Calm - N/A Fog Fog
6:55 AM 41.0 °F - 41.0 °F 100% 30.25 in 0.2 mi Calm Calm - N/A Fog Fog
7:15 AM 41.0 °F - 41.0 °F 100% 30.26 in 0.2 mi Calm Calm - N/A Fog Fog
7:35 AM 41.0 °F 38.0 °F 41.0 °F 100% 30.26 in 0.2 mi West 4.6 mph - N/A Fog Fog
7:55 AM 42.8 °F 40.1 °F 42.8 °F 100% 30.28 in 0.2 mi WNW 4.6 mph - N/A Fog Fog
8:15 AM 42.8 °F 41.1 °F 42.8 °F 100% 30.28 in 0.2 mi WNW 3.5 mph - N/A Fog Fog
8:35 AM 42.8 °F 40.1 °F 42.8 °F 100% 30.29 in 0.2 mi WNW 4.6 mph - N/A Fog Fog
8:55 AM 42.8 °F - 42.8 °F 100% 30.29 in 0.2 mi Calm Calm - N/A Fog Fog
9:15 AM 44.6 °F - 44.6 °F 100% 30.29 in 0.2 mi Calm Calm - N/A Fog Fog
9:35 AM 44.6 °F - 44.6 °F 100% 30.29 in 0.2 mi Calm Calm - N/A Fog Fog
9:55 AM 46.4 °F - 46.4 °F 100% 30.30 in 0.2 mi Calm Calm - N/A Fog Fog
10:15 AM 46.4 °F - 46.4 °F 100% 30.30 in 0.2 mi Calm Calm - N/A Fog Fog
10:35 AM 46.4 °F - 46.4 °F 100% 30.29 in 0.2 mi Calm Calm - N/A Fog Fog
10:55 AM 48.2 °F - 48.2 °F 100% 30.29 in 0.2 mi Calm Calm - N/A Fog Fog
11:15 AM 48.2 °F - 48.2 °F 100% 30.28 in 0.8 mi Calm Calm - N/A   Overcast
11:35 AM 50.0 °F - 50.0 °F 100% 30.27 in 2.5 mi Calm Calm - N/A   Mostly Cloudy
11:55 AM 51.8 °F - 51.8 °F 100% 30.26 in 5.0 mi Calm Calm - N/A   Clear
12:15 PM 53.6 °F - 53.6 °F 100% 30.25 in 7.0 mi Calm Calm - N/A   Clear
12:35 PM 57.2 °F - 55.4 °F 94% 30.25 in 10.0 mi South 3.5 mph - N/A   Clear
12:55 PM 59.0 °F - 53.6 °F 82% 30.24 in 10.0 mi SSW 4.6 mph - N/A   Clear
1:15 PM 60.8 °F - 51.8 °F 72% 30.23 in 10.0 mi Calm Calm - N/A   Clear
1:35 PM 60.8 °F - 51.8 °F 72% 30.23 in 10.0 mi Calm Calm - N/A   Clear
1:55 PM 60.8 °F - 51.8 °F 72% 30.22 in 10.0 mi Calm Calm - N/A   Clear
2:15 PM 60.8 °F - 51.8 °F 72% 30.22 in 10.0 mi Calm Calm - N/A   Clear
2:35 PM 60.8 °F - 50.0 °F 68% 30.21 in 10.0 mi Calm Calm - N/A   Clear
2:55 PM 60.8 °F - 48.2 °F 63% 30.21 in 10.0 mi Calm Calm - N/A   Clear
3:15 PM 60.8 °F - 50.0 °F 68% 30.20 in 10.0 mi SE 3.5 mph - N/A   Clear
3:35 PM 60.8 °F - 51.8 °F 72% 30.21 in 10.0 mi Calm Calm - N/A   Clear
3:55 PM 60.8 °F - 50.0 °F 68% 30.21 in 10.0 mi Calm Calm - N/A   Clear
4:15 PM 59.0 °F - 50.0 °F 72% 30.20 in 10.0 mi Calm Calm - N/A   Clear
4:35 PM 57.2 °F - 51.8 °F 82% 30.20 in 10.0 mi ESE 3.5 mph - N/A   Clear
4:55 PM 55.4 °F - 51.8 °F 88% 30.20 in 10.0 mi ESE 3.5 mph - N/A   Clear
5:15 PM 53.6 °F - 51.8 °F 94% 30.20 in 10.0 mi ESE 4.6 mph - N/A   Clear
5:35 PM 53.6 °F - 51.8 °F 94% 30.20 in 10.0 mi SE 3.5 mph - N/A   Clear
5:55 PM 53.6 °F - 51.8 °F 94% 30.20 in 10.0 mi SE 4.6 mph - N/A   Clear
6:15 PM 51.8 °F - 51.8 °F 100% 30.19 in 10.0 mi SE 4.6 mph - N/A   Clear
6:35 PM 51.8 °F - 51.8 °F 100% 30.19 in 10.0 mi SE 4.6 mph - N/A   Clear
6:55 PM 51.8 °F - 51.8 °F 100% 30.19 in 10.0 mi SE 4.6 mph - N/A   Clear
7:15 PM 51.8 °F - 51.8 °F 100% 30.19 in 10.0 mi SSE 5.8 mph - N/A   Clear
7:35 PM 51.8 °F - 50.0 °F 94% 30.19 in 10.0 mi SSE 5.8 mph - N/A   Clear
7:55 PM 51.8 °F - 51.8 °F 100% 30.18 in 10.0 mi SSE 5.8 mph - N/A   Clear
8:15 PM 51.8 °F - 51.8 °F 100% 30.18 in 10.0 mi SSE 5.8 mph - N/A   Clear
8:35 PM 51.8 °F - 51.8 °F 100% 30.18 in 10.0 mi SSE 5.8 mph - N/A   Clear
8:55 PM 51.8 °F - 50.0 °F 94% 30.18 in 10.0 mi SSE 5.8 mph - N/A   Clear
9:15 PM 50.0 °F - 50.0 °F 100% 30.18 in 10.0 mi SSE 5.8 mph - N/A   Clear
9:35 PM 50.0 °F - 50.0 °F 100% 30.18 in 10.0 mi SSE 5.8 mph - N/A   Clear
9:55 PM 48.2 °F - 48.2 °F 100% 30.18 in 10.0 mi SSE 6.9 mph - N/A   Clear
10:15 PM 48.2 °F - 48.2 °F 100% 30.18 in 10.0 mi SSE 5.8 mph - N/A   Clear
10:35 PM 48.2 °F - 48.2 °F 100% 30.18 in 7.0 mi SSE 3.5 mph - N/A   Clear
10:55 PM 48.2 °F - 48.2 °F 100% 30.18 in 7.0 mi SSE 4.6 mph - N/A   Clear
11:15 PM 48.2 °F - 48.2 °F 100% 30.18 in 7.0 mi South 3.5 mph - N/A   Clear
11:35 PM 44.6 °F - 44.6 °F 100% 30.18 in 5.0 mi Calm Calm - N/A   Clear
11:55 PM 42.8 °F - 42.8 °F 100% 30.18 in 5.0 mi Calm Calm - N/A   Clear